Ozark, AL

9:02 AM CDT on March 25, 2017 (GMT -0500)
Cairns Army Air Field

Weather History for KOZR - February, 2013

Change the Weather History Date:

Friday, February 8, 2013

  Actual Average Record
Temperature  
Mean Temperature 60 °F -  
Max Temperature 68 °F 60 °F 80 °F (1999)
Min Temperature 51 °F 39 °F 24 °F (2004)
Degree Days  
Heating Degree Days 4    
Growing Degree Days 10 (Base 50)    
Moisture  
Dew Point 54 °F    
Average Humidity 89    
Maximum Humidity 97    
Minimum Humidity 62    
Precipitation  
Precipitation 0.14 in - - ()
Sea Level Pressure  
Sea Level Pressure 30.02 in    
Wind  
Wind Speed 3 mph (North)    
Max Wind Speed 15 mph    
Max Gust Speed 23 mph    
Visibility 7 miles    
Events Rain    
Averages and records for this station are not official NWS values.
T = Trace of Precipitation, MM = Missing Value Source: NWS Daily Summary

Daily Weather History Graph

Daily Weather History Graph

Search for Another Location

Airport or City:

Trip Planner

Search our weather history database for the weather conditions in past years. The results will help you decide how hot, cold, wet, or windy it might be!

Date:

Astronomy

Feb. 08, 2013 Rise Set
Actual Time 6:29 AM CST 5:24 PM CST
Civil Twilight 6:04 AM CST 5:49 PM CST
Nautical Twilight 5:36 AM CST 6:18 PM CST
Astronomical Twilight 5:07 AM CST 6:46 PM CST
Moon 4:55 AM CST (2/8) 3:58 PM CST (2/8)
Length of Visible Light 11h 44m
Length of Day
10h 54m
Waning Crescent, 3% of the Moon is Illuminated
Feb 8
Waning Crescent
Feb 10
New
Feb 17
First Quarter
Feb 25
Full
Mar 4
Last Quarter

Hourly Weather History & Observations

Time (CST) Temp. Dew Point Humidity Pressure Visibility Wind Dir Wind Speed Gust Speed Precip Events Conditions
12:08 AM 55.4 °F 53.6 °F 94% 29.93 in 10.0 mi North 3.5 mph - N/A   Mostly Cloudy
12:18 AM 55.4 °F 53.6 °F 94% 29.94 in 10.0 mi North 2.3 mph - N/A   Mostly Cloudy
12:58 AM 55.6 °F 54.0 °F 94% 29.95 in 10.0 mi ENE 1.2 mph - N/A   Overcast
1:48 AM 55.4 °F 53.6 °F 94% 29.94 in 10.0 mi ESE 2.3 mph - N/A   Overcast
1:58 AM 55.4 °F 53.8 °F 94% 29.96 in 10.0 mi ENE 1.2 mph - N/A   Overcast
2:28 AM 55.4 °F 53.6 °F 94% 29.95 in 9.0 mi Calm Calm - N/A   Overcast
2:58 AM 55.2 °F 54.1 °F 96% 29.96 in 10.0 mi NE 3.5 mph - N/A   Overcast
3:00 AM 55.4 °F 53.6 °F 94% 29.95 in 10.0 mi NE 3.5 mph - N/A   Overcast
3:06 AM 55.4 °F 53.6 °F 94% 29.95 in 10.0 mi ENE 4.6 mph - N/A   Overcast
3:15 AM 55.4 °F 53.6 °F 94% 29.95 in 10.0 mi East 2.3 mph - N/A   Overcast
3:22 AM 55.4 °F 53.6 °F 94% 29.95 in 10.0 mi East 1.2 mph - N/A   Overcast
3:28 AM 55.4 °F 53.6 °F 94% 29.95 in 10.0 mi East 2.3 mph - N/A   Overcast
3:35 AM 55.4 °F 53.6 °F 94% 29.96 in 10.0 mi ENE 2.3 mph - N/A   Overcast
3:40 AM 55.4 °F 53.6 °F 94% 29.96 in 9.0 mi NE 2.3 mph - N/A   Overcast
3:58 AM 54.9 °F 54.0 °F 97% 29.97 in 8.0 mi NE 2.3 mph - N/A   Overcast
4:08 AM 55.4 °F 53.6 °F 94% 29.96 in 7.0 mi NE 2.3 mph - N/A   Overcast
4:13 AM 55.4 °F 53.6 °F 94% 29.96 in 7.0 mi NNE 2.3 mph - N/A   Overcast
4:28 AM 55.4 °F 53.6 °F 94% 29.97 in 8.0 mi NE 3.5 mph - N/A   Overcast
4:33 AM 55.4 °F 53.6 °F 94% 29.97 in 8.0 mi NE 2.3 mph - N/A   Overcast
4:38 AM 55.4 °F 53.6 °F 94% 29.97 in 8.0 mi NNE 2.3 mph - N/A   Overcast
4:48 AM 55.4 °F 53.6 °F 94% 29.97 in 8.0 mi NNE 2.3 mph - N/A   Overcast
4:58 AM 54.7 °F 53.8 °F 97% 29.99 in 7.0 mi NNE 2.3 mph - N/A   Overcast
5:03 AM 55.4 °F 53.6 °F 94% 29.98 in 7.0 mi NNE 2.3 mph - N/A   Overcast
5:33 AM 55.4 °F 53.6 °F 94% 29.99 in 6.0 mi NNE 2.3 mph - N/A   Overcast
5:43 AM 55.4 °F 53.6 °F 94% 29.99 in 7.0 mi NNE 2.3 mph - N/A   Overcast
5:48 AM 55.4 °F 53.6 °F 94% 30.00 in 8.0 mi NE 2.3 mph - N/A   Overcast
5:58 AM 54.7 °F 54.0 °F 97% 30.01 in 7.0 mi North 1.2 mph - N/A   Overcast
6:03 AM 55.4 °F 53.6 °F 94% 30.01 in 7.0 mi Variable 1.2 mph - N/A   Overcast
6:28 AM 55.4 °F 53.6 °F 94% 30.01 in 3.0 mi NW 3.5 mph - N/A   Overcast
6:58 AM 54.9 °F 53.4 °F 95% 30.02 in 4.0 mi NNW 4.6 mph - N/A   Overcast
7:03 AM 55.4 °F 53.6 °F 94% 30.02 in 3.0 mi WNW 2.3 mph - N/A   Overcast
7:09 AM 55.4 °F 53.6 °F 94% 30.02 in 3.0 mi WNW 2.3 mph - N/A   Overcast
7:13 AM 55.4 °F 53.6 °F 94% 30.02 in 4.0 mi West 2.3 mph - N/A   Overcast
7:14 AM 55.4 °F 53.6 °F 94% 30.02 in 4.0 mi WNW 2.3 mph - N/A   Overcast
7:39 AM 55.4 °F 53.6 °F 94% 30.03 in 5.0 mi NNW 2.3 mph - N/A   Overcast
7:58 AM 55.0 °F 53.4 °F 94% 30.04 in 4.0 mi NW 2.3 mph - N/A   Overcast
8:48 AM 55.4 °F 53.6 °F 94% 30.04 in 6.0 mi WSW 2.3 mph - N/A   Overcast
8:58 AM 56.1 °F 53.6 °F 91% 30.05 in 5.0 mi Variable 2.3 mph - N/A   Overcast
9:03 AM 57.2 °F 53.6 °F 88% 30.04 in 5.0 mi NW 2.3 mph - N/A   Overcast
9:44 AM 57.2 °F 53.6 °F 88% 30.05 in 5.0 mi SW 5.8 mph - N/A   Overcast
9:48 AM 57.2 °F 53.6 °F 88% 30.06 in 5.0 mi WSW 5.8 mph - N/A   Haze
9:58 AM 58.1 °F 53.6 °F 85% 30.07 in 5.0 mi West 5.8 mph - N/A   Haze
10:25 AM 59.0 °F 53.6 °F 82% 30.07 in 8.0 mi NW 5.8 mph - N/A Rain Light Rain
10:41 AM 59.0 °F 53.6 °F 82% 30.07 in 6.0 mi WNW 4.6 mph - N/A   Haze
10:58 AM 59.9 °F 54.1 °F 81% 30.08 in 5.0 mi NW 4.6 mph - 0.00 in   Haze
11:18 AM 60.8 °F 53.6 °F 77% 30.06 in 7.0 mi Variable 2.3 mph - N/A   Overcast
11:58 AM 62.8 °F 54.5 °F 74% 30.05 in 8.0 mi West 4.6 mph - N/A   Mostly Cloudy
12:43 PM 66.2 °F 55.4 °F 68% 30.02 in 7.0 mi WNW 9.2 mph - N/A   Mostly Cloudy
12:58 PM 66.4 °F 55.9 °F 69% 30.03 in 6.0 mi WNW 8.1 mph - N/A   Haze
1:43 PM 68.0 °F 57.2 °F 68% 30.02 in 6.0 mi NW 5.8 mph - N/A   Haze
1:58 PM 67.3 °F 56.5 °F 68% 30.04 in 8.0 mi NW 4.6 mph - N/A   Overcast
2:58 PM 68.0 °F 55.9 °F 65% 30.03 in 10.0 mi NNW 5.8 mph - N/A   Mostly Cloudy
3:58 PM 68.5 °F 54.9 °F 62% 30.03 in 10.0 mi WNW 4.6 mph - N/A   Mostly Cloudy
4:44 PM 66.2 °F 55.4 °F 68% 30.03 in 10.0 mi NNW 5.8 mph - N/A Rain Light Rain
4:54 PM 64.4 °F 59.0 °F 83% 30.06 in 2.0 mi NW 15.0 mph 23.0 mph N/A Rain Heavy Rain
4:58 PM 62.6 °F 59.0 °F 88% 30.07 in 1.2 mi NW 9.2 mph 23.0 mph 0.07 in Rain Heavy Rain
5:03 PM 60.8 °F 59.0 °F 94% 30.05 in 1.2 mi North 3.5 mph 23.0 mph N/A Rain Light Rain
5:08 PM 60.8 °F 57.2 °F 88% 30.05 in 4.0 mi NNW 4.6 mph - N/A Rain Light Rain
5:26 PM 60.8 °F 57.2 °F 88% 30.05 in 10.0 mi North 3.5 mph - N/A   Partly Cloudy
5:58 PM 58.3 °F 55.6 °F 91% 30.08 in 8.0 mi WNW 4.6 mph - 0.07 in   Clear
6:58 PM 57.6 °F 55.0 °F 91% 30.10 in 10.0 mi North 10.4 mph - N/A   Clear
7:58 PM 56.3 °F 53.4 °F 90% 30.12 in 10.0 mi North 5.8 mph - N/A   Clear
8:23 PM 55.4 °F 53.6 °F 94% 30.12 in 10.0 mi NNW 5.8 mph - N/A   Mostly Cloudy
8:58 PM 56.1 °F 52.5 °F 88% 30.14 in 10.0 mi North 9.2 mph - N/A   Overcast
9:58 PM 55.8 °F 51.4 °F 85% 30.16 in 10.0 mi North 6.9 mph - N/A   Overcast
10:58 PM 55.0 °F 49.5 °F 81% 30.17 in 10.0 mi North 9.2 mph - N/A   Overcast
11:13 PM 53.6 °F 48.2 °F 82% 30.16 in 10.0 mi North 9.2 mph - N/A   Scattered Clouds
11:54 PM 51.8 °F 46.4 °F 82% 30.16 in 10.0 mi North 9.2 mph - N/A   Clear